Change the Weather History Date:

Wednesday, February 20, 2013

  Actual Average (KWRI) Record (KWRI)
Temperature  
Mean Temperature 32 °F -  
Max Temperature 36 °F 43 °F 64 °F (2002)
Min Temperature 26 °F 25 °F 0 °F (2015)
Degree Days  
Heating Degree Days 34    
Moisture  
Dew Point 11 °F    
Average Humidity 45    
Maximum Humidity 56    
Minimum Humidity 37    
Precipitation  
Precipitation 0.00 in - - ()
Sea Level Pressure  
Sea Level Pressure 29.95 in    
Wind  
Wind Speed 13 mph (WNW)    
Max Wind Speed 20 mph    
Max Gust Speed 30 mph    
Visibility 10 miles    
Events      
Averages and records for this station are not official NWS values.
T = Trace of Precipitation, MM = Missing Value Source: NWS Daily Summary

Daily Weather History Graph

Daily Weather History Graph

Search for Another Location

Airport or City:

Trip Planner

Search our weather history database for the weather conditions in past years. The results will help you decide how hot, cold, wet, or windy it might be!

Date:

Astronomy

Feb. 20, 2013 Rise Set
Actual Time 6:45 AM EST 5:41 PM EST
Civil Twilight 6:17 AM EST 6:08 PM EST
Nautical Twilight 5:46 AM EST 6:40 PM EST
Astronomical Twilight 5:14 AM EST 7:11 PM EST
Moon 1:00 PM EST (2/20) 3:03 AM EST (2/20)
Length of Visible Light 11h 51m
Length of Day
10h 56m
Waxing Gibbous, 76% of the Moon is Illuminated
Feb 20
Waxing Gibbous
Feb 25
Full
Mar 4
Last Quarter
Mar 11
New
Mar 19
First Quarter

Hourly Weather History & Observations

Time (EST) Temp. Windchill Dew Point Humidity Pressure Visibility Wind Dir Wind Speed Gust Speed Precip Events Conditions
1:54 AM 36.0 °F 29.6 °F 19.9 °F 52% 29.82 in 10.0 mi WNW 8.1 mph 18.4 mph N/A   Scattered Clouds
2:54 AM 35.1 °F 25.9 °F 17.1 °F 48% 29.83 in 10.0 mi WNW 13.8 mph 20.7 mph N/A   Partly Cloudy
4:54 AM 32.0 °F 21.6 °F 15.1 °F 50% 29.86 in 10.0 mi West 15.0 mph 21.9 mph N/A   Scattered Clouds
5:54 AM 30.9 °F 24.3 °F 12.9 °F 47% 29.88 in 10.0 mi WNW 6.9 mph 24.2 mph N/A   Clear
6:54 AM 30.0 °F 21.1 °F 14.0 °F 51% 29.90 in 10.0 mi WNW 10.4 mph - N/A   Mostly Cloudy
7:54 AM 30.0 °F 18.7 °F 16.0 °F 56% 29.93 in 10.0 mi WNW 16.1 mph 20.7 mph N/A   Overcast
8:54 AM 28.9 °F 17.3 °F 10.9 °F 47% 29.95 in 10.0 mi WNW 16.1 mph 29.9 mph N/A   Overcast
9:54 AM 30.0 °F 19.1 °F 10.9 °F 45% 29.95 in 10.0 mi West 15.0 mph 26.5 mph N/A   Mostly Cloudy
10:54 AM 30.9 °F 19.1 °F 10.0 °F 42% 29.94 in 10.0 mi West 18.4 mph 28.8 mph N/A   Scattered Clouds
12:54 PM 33.1 °F 23.0 °F 9.0 °F 37% 29.92 in 10.0 mi West 15.0 mph 26.5 mph N/A   Scattered Clouds
1:54 PM 30.9 °F 19.4 °F 9.0 °F 40% 29.93 in 10.0 mi West 17.3 mph 26.5 mph N/A   Overcast
2:54 PM 30.9 °F 18.7 °F 8.1 °F 38% 29.94 in 10.0 mi West 19.6 mph 27.6 mph N/A   Overcast
3:54 PM 30.9 °F 20.2 °F 10.0 °F 42% 29.96 in 10.0 mi WNW 15.0 mph 24.2 mph N/A   Overcast
4:54 PM 30.0 °F 20.0 °F 8.1 °F 40% 29.98 in 10.0 mi WNW 12.7 mph 26.5 mph N/A   Mostly Cloudy
5:54 PM 28.9 °F 17.7 °F 8.1 °F 41% 30.01 in 10.0 mi WNW 15.0 mph 21.9 mph N/A   Clear
6:54 PM 28.9 °F 17.7 °F 8.1 °F 41% 30.03 in 10.0 mi West 15.0 mph 24.2 mph N/A   Scattered Clouds
7:54 PM 28.0 °F 17.0 °F 9.0 °F 45% 30.03 in 10.0 mi West 13.8 mph 20.7 mph N/A   Scattered Clouds
8:54 PM 27.0 °F 16.7 °F 9.0 °F 47% 30.05 in 10.0 mi WNW 11.5 mph 24.2 mph N/A   Partly Cloudy
9:54 PM 27.0 °F 16.7 °F 9.0 °F 47% 30.05 in 10.0 mi West 11.5 mph 18.4 mph N/A   Clear
11:54 PM 26.1 °F 14.0 °F 8.1 °F 47% 30.07 in 10.0 mi West 15.0 mph 21.9 mph N/A   Partly Cloudy